EW9530 Weather Reports


Display with metric or nautical units.
time (UTC)temp
F
wind
direction
speed
MPH
gust
MPH
rain 1hr
in
rain 24hr
in
rain mn
in
humidity
%
barometer
mb
20260503060149 59 338 0.0 5.0 0.00 0.00 0.00 84 1018.4
20260503054652 59 261 0.0 0.0 0.00 0.00 0.00 85 1018.3
20260503053143 59 261 0.0 0.0 0.00 0.00 0.00 85 1018.1
20260503051654 59 260 0.0 0.0 0.00 0.00 0.00 84 1017.9
20260503050154 59 254 0.0 0.0 0.00 0.00 0.00 84 1018.0
20260503044653 59 250 0.0 0.0 0.00 0.00 0.00 84 1018.0
20260503043139 59 99 0.0 0.0 0.00 0.00 0.00 84 1017.9
20260503041652 60 99 0.0 0.0 0.00 0.00 0.00 82 1018.0
20260503034654 60 99 0.0 1.0 0.00 0.00 0.00 83 1018.4
20260503033137 60 99 0.0 0.0 0.00 0.00 0.00 83 1018.5
20260503031651 61 99 0.0 0.0 0.00 0.00 0.00 83 1018.5
20260503030109 61 99 0.0 0.0 0.00 0.00 0.00 82 1018.7
20260503024656 61 99 0.0 0.0 0.00 0.00 0.00 82 1018.7
20260503023146 61 120 0.0 4.0 0.00 0.00 0.00 82 1018.8
20260503021653 61 207 0.0 4.0 0.00 0.00 0.00 82 1018.9
20260503020150 61 136 0.0 4.0 0.00 0.00 0.00 81 1018.7
20260503014652 61 142 1.0 4.0 0.00 0.00 0.00 80 1018.8
20260503013141 61 142 1.0 5.0 0.00 0.00 0.00 81 1018.9
20260503011655 61 151 0.0 2.0 0.00 0.00 0.00 81 1019.0
20260503004649 61 163 0.0 3.0 0.00 0.00 0.00 80 1019.4
20260503003156 61 159 0.0 0.0 0.00 0.00 0.00 80 1019.6
20260503001651 61 159 0.0 2.0 0.00 0.00 0.00 80 1020.0
20260502234654 62 141 0.0 0.0 0.00 0.00 0.00 80 1020.2
20260502233159 62 141 0.0 0.0 0.00 0.00 0.00 80 1020.3
20260502231623 62 146 0.0 2.0 0.00 0.00 0.00 80 1020.4
20260502230148 62 139 0.0 4.0 0.00 0.00 0.00 80 1020.3
20260502224654 62 142 0.0 3.0 0.00 0.00 0.00 80 1020.4
20260502223139 62 131 0.0 2.0 0.00 0.00 0.00 81 1020.5
20260502221652 62 131 0.0 0.0 0.00 0.00 0.00 80 1020.5
20260502220151 62 137 0.0 0.0 0.00 0.00 0.00 80 1020.7
20260502214653 62 94 0.0 0.0 0.00 0.00 0.00 80 1020.7
20260502213156 62 94 0.0 0.0 0.00 0.00 0.00 79 1020.9
20260502211650 62 94 0.0 0.0 0.00 0.00 0.00 79 1021.0
20260502204651 62 166 0.0 0.0 0.00 0.00 0.00 78 1021.0
20260502203155 62 157 0.0 4.0 0.00 0.00 0.00 78 1021.1
20260502201651 62 177 0.0 3.0 0.00 0.00 0.00 78 1020.9
20260502194650 62 134 0.0 2.0 0.00 0.00 0.00 77 1020.6
20260502193158 62 134 0.0 2.0 0.00 0.00 0.00 76 1020.6
20260502191649 62 121 0.0 4.0 0.00 0.00 0.00 75 1020.7
20260502184652 63 160 2.0 5.0 0.00 0.00 0.00 71 1020.6
20260502183138 64 136 1.0 7.0 0.00 0.00 0.00 68 1020.5
20260502181651 64 163 2.0 8.0 0.00 0.00 0.00 65 1020.5
20260502180156 64 143 0.0 6.0 0.00 0.00 0.00 65 1020.4
20260502163155 66 110 0.0 9.0 0.00 0.00 0.00 59 1021.1
20260502161651 67 134 0.0 8.0 0.00 0.00 0.00 60 1021.1
20260502151601 69 104 2.0 11.0 0.00 0.00 0.00 53 1021.5
20260502150154 68 120 4.0 12.0 0.00 0.00 0.00 50 1021.5
20260502123158 69 105 2.0 7.0 0.00 0.00 0.00 55 1022.9
20260502121651 69 130 1.0 10.0 0.00 0.00 0.00 54 1023.2
20260502120148 68 127 1.0 7.0 0.00 0.00 0.00 56 1023.3
20260502114654 67 70 0.0 3.0 0.00 0.00 0.00 62 1023.4
20260502113159 66 15 0.0 3.0 0.00 0.00 0.00 64 1023.6
20260502111502 66 15 0.0 3.0 0.00 0.00 0.00 67 1023.8
20260502104651 65 327 0.0 4.0 0.00 0.00 0.00 69 1023.9
20260502103138 65 329 0.0 4.0 0.00 0.00 0.00 72 1024.1
20260502101650 64 344 0.0 4.0 0.00 0.00 0.00 71 1024.4
20260502090149 62 5 4.0 6.0 0.00 0.00 0.00 79 1024.7
20260502064636 60 327 0.0 0.0 0.00 0.00 0.00 84 1024.7